Home   Weather   Ilanz   Past weeks

Flag for Switzerland Past Weather in Ilanz, Graubünden, Switzerland — Yesterday and Last 2 Weeks

Now
44 °F

Sunny.


Feels Like: 42 °F
Forecast: 23 / 43 °F
Wind: 3 mph from Southwest

Location: Chur

Current Time: Dec 5, 2016 at 1:44:44 pm

Latest Report: Dec 5, 2016 at 1:00 pm


Visibility: 22 mi

Pressure: 30.36 "Hg (27.86 "Hg at 703m altitude)

Humidity: 36%

Dew Point: 18 °F

Location of IlanzLocation

Past Weather in Ilanz — Graph

°F

Ilanz Temperature Yesterday

Maximum temperature yesterday: 47 °F (at 1:00 pm)
Minimum temperature yesterday: 29 °F (at 7:00 pm)
Average temperature yesterday: 35 °F

High & Low Weather Summary for the Past Weeks

 TemperatureHumidityPressure
High64 °F (Nov 22, 2:00 pm)97% (Nov 27, 3:00 am)30.66 "Hg (Nov 27, 3:00 am)
Low23 °F (Dec 3, 8:00 am)36% (Dec 4, 1:00 pm)29.73 "Hg (Nov 21, 2:00 pm)
Average43 °F69%30.16 "Hg
* Reported Nov 20 12:00 pm — Dec 5 12:00 pm, Ilanz, Weather by CustomWeather, © 2016

Note: Actual official high and low records may vary slightly from our data, if they occured in-between our weather recording intervals... More about our weather records

Advertising

Ilanz Weather History for the Previous 24 Hours

Scroll right to see more
 ConditionsComfort  
Time TempWeatherWind HumidityBarometerVisibility
12:00 pm
Mon, Dec 5
42 °FQuite cool.3 mph38%30.38 "HgN/A
11:00 am38 °FChilly.5 mph46%30.41 "HgN/A
10:00 am34 °FSunny.5 mph57%30.44 "Hg16 mi
9:00 am31 °FChilly.6 mph62%30.45 "HgN/A
8:00 am32 °FChilly.5 mph61%30.43 "HgN/A
7:00 am32 °FClear.3 mph63%30.42 "Hg16 mi
6:00 am31 °FChilly.5 mph65%30.42 "HgN/A
5:00 am33 °FChilly.8 mph61%30.42 "HgN/A
4:00 am33 °FClear.7 mph63%30.42 "Hg7 mi
3:00 am33 °FChilly.7 mph64%30.42 "HgN/A
2:00 am35 °FChilly.7 mph58%30.40 "HgN/A
1:00 am32 °FClear.5 mph67%30.40 "Hg7 mi
12:00 am34 °FChilly.7 mph64%30.39 "HgN/A
11:00 pm
Sun, Dec 4
31 °FChilly.2 mph73%30.40 "HgN/A
10:00 pm30 °FClear.1 mph83%30.40 "Hg7 mi
9:00 pm29 °FChilly.1 mph83%30.40 "HgN/A
8:00 pm30 °FChilly.1 mph84%30.39 "HgN/A
7:00 pm29 °FClear.No wind85%30.39 "Hg16 mi
6:00 pm30 °FChilly.1 mph82%30.37 "HgN/A
5:00 pm36 °FChilly.3 mph69%30.32 "HgN/A
4:00 pm38 °FSunny.7 mph66%30.29 "Hg16 mi
3:00 pm42 °FQuite cool.10 mph54%30.26 "HgN/A
2:00 pm46 °FCool.6 mph46%30.24 "HgN/A
1:00 pm47 °FSunny.2 mph36%30.25 "Hg16 mi
Weather by CustomWeather, © 2016

See weather overviewHow to use our weather pages